Temperature
18 18 18 18 17 17 17 17 17 17 16 16 16 16 16 15 15 15 15 15 15 15 15 14 14 14 14 14 14 14 13 13 13 13 13 13 13 13 13 13 13 13 13
17 18 18 17 17 17 17 17 17 17 16 16 16 16 16 15 15 15 15 15 15 14 14 14 14 14 14 14 14 13 13 13 13 13 13 12 12 12 12 12 13 13 13
17 17 17 17 17 17 17 17 17 16 16 16 16 16 15 15 15 15 15 15 14 14 14 14 14 14 14 14 14 13 13 13 13 13 13 12 12 12 12 12 12 12 12
17 17 17 17 17 17 17 17 17 16 16 16 16 15 15 15 15 15 15 15 14 14 14 14 14 14 14 14 13 13 13 13 13 12 12 12 12 12 12 12 12 12 12
17 17 17 17 17 17 17 16 16 16 16 16 15 15 15 15 15 15 14 14 14 14 14 14 14 14 14 13 13 13 13 13 13 13 12 12 12 12 12 12 12 12 12
17 17 17 17 17 16 16 16 16 16 16 15 15 15 15 15 15 14 14 14 14 14 14 14 13 13 13 13 13 13 13 13 13 13 12 12 12 12 12 12 11 11 11
17 16 16 16 16 16 16 16 16 16 15 15 15 15 15 15 14 14 14 14 14 14 14 13 13 13 13 13 13 13 13 13 12 12 12 12 12 12 12 12 11 11 11
16 16 16 16 16 16 16 16 16 16 15 15 15 15 15 14 14 14 14 14 14 13 13 13 13 13 13 13 13 13 12 12 12 12 12 12 12 12 11 11 11 11 11
16 16 16 16 16 16 16 16 15 15 15 15 15 15 14 14 14 14 14 14 13 13 13 13 13 13 13 12 12 12 12 12 12 12 12 12 12 11 11 11 11 11 11
16 16 16 16 16 16 16 16 15 15 15 15 15 15 14 14 14 14 14 13 13 13 13 13 13 12 12 12 12 12 12 12 12 12 12 12 11 11 11 11 11 11 11
16 16 16 16 15 15 15 15 15 15 15 15 14 14 14 14 14 14 14 13 13 13 13 12 12 12 12 12 12 12 12 12 12 11 11 11 11 11 11 11 11 11 10
16 16 16 16 15 15 15 15 15 15 15 15 14 14 14 14 14 13 13 13 13 13 12 12 12 12 12 12 12 12 11 11 11 11 11 11 11 11 11 11 11 10 10
15 15 15 15 15 15 15 15 15 15 15 14 14 14 14 14 13 13 13 13 13 12 12 12 12 12 12 12 12 11 11 11 11 11 11 11 11 11 11 11 10 10 10
15 15 15 15 15 15 15 15 15 14 14 14 14 14 13 13 13 13 13 13 12 12 12 12 12 12 12 12 11 11 11 11 11 11 10 10 11 10 10 10 10 10 10
14 14 15 15 14 14 14 14 14 14 14 14 13 13 13 13 13 13 12 12 12 12 12 12 12 12 12 11 11 11 11 11 11 10 10 10 10 10 10 10 10 10 10
14 14 14 14 14 14 14 14 14 13 13 13 13 13 13 13 12 12 12 12 12 12 11 11 11 11 11 11 11 11 11 10 10 10 10 10 10 10 10 10 10 9 9
14 14 14 14 14 14 14 14 13 13 13 13 13 13 12 12 12 12 12 12 11 11 11 11 11 11 11 11 11 10 10 10 10 10 10 10 10 10 10 9 9 9 9
14 14 14 14 14 14 13 13 13 13 13 13 12 12 12 12 12 12 11 11 11 11 11 11 11 11 11 11 10 10 10 10 10 9 9 9 9 9 9 9 9 9 9
14 13 13 13 13 13 13 13 13 13 12 12 12 12 12 12 12 11 11 11 11 11 11 10 10 10 10 10 10 10 10 9 9 9 9 9 9 9 9 9 9 9 9
13 13 13 13 13 13 13 12 12 12 12 12 12 12 11 11 11 11 11 11 11 10 10 10 10 10 10 10 9 9 9 9 9 9 9 9 9 9 9 8 8 8 8
13 13 13 13 13 12 12 12 12 12 12 12 11 11 11 11 11 11 11 10 10 10 10 10 9 9 9 9 9 9 9 9 9 9 9 9 9 8 8 8 8 8 8
12 12 12 12 12 12 12 11 11 11 11 11 11 11 11 11 10 10 10 10 10 10 9 9 9 9 9 9 9 9 9 9 9 9 8 8 8 8 8 8 8 8 8
12 12 12 12 12 11 11 11 11 11 11 10 11 11 11 10 10 10 10 10 9 9 9 9 9 9 9 8 8 9 9 8 8 8 8 8 8 8 8 8 8 7 7
11 11 11 11 11 11 11 11 10 10 10 10 10 10 10 10 10 10 9 9 9 9 9 9 8 8 8 8 8 8 8 8 8 8 8 8 8 8 8 7 7 7 7
11 11 11 11 11 10 10 10 10 10 10 9 10 10 10 10 9 9 9 9 9 9 8 8 8 8 8 8 8 8 8 8 8 7 7 7 7 7 7 7 7 7 7
10 10 10 10 10 10 10 10 9 9 9 9 9 9 9 9 9 9 8 8 8 8 8 8 8 8 8 8 8 8 7 7 7 7 7 7 7 7 7 6 7 7 7
Wind_Speed
5 4 4 5 4 4 4 4 4 3 3 2 2 2 1 1 1 1 2 3 4 4 4 3 3 3 3 3 3 3 4 3 2 3 3 4 4 4 4 4 4 5 6
3 3 4 4 5 5 5 4 4 4 4 3 3 2 2 1 1 1 2 2 3 4 4 4 3 3 3 4 3 3 2 1 2 2 2 2 3 3 4 3 3 4 5
7 5 5 5 5 5 6 5 5 4 4 3 3 3 3 3 2 1 1 0 2 3 3 4 3 3 3 3 3 3 4 2 1 1 2 2 1 1 3 3 3 3 3
6 5 5 5 5 6 5 5 4 3 3 4 4 5 3 2 2 1 1 1 1 2 3 3 4 3 3 3 3 2 2 3 2 1 1 1 3 2 1 3 3 3 3
6 6 6 6 5 5 5 4 4 3 3 4 5 5 3 2 1 1 2 1 1 1 2 3 3 3 2 3 3 2 2 2 3 2 2 2 2 1 2 1 3 3 3
6 6 5 5 4 3 4 4 4 4 4 4 5 5 5 4 4 2 2 1 0 1 1 2 2 2 2 2 2 2 3 2 2 2 2 2 2 2 2 2 1 2 3
6 6 5 5 4 4 4 4 5 4 4 5 5 6 6 6 6 4 4 2 1 0 1 1 2 1 2 2 2 2 2 2 2 2 2 2 2 2 2 2 1 1 2
5 6 6 6 5 5 5 5 5 4 4 5 5 5 5 4 4 4 4 4 3 3 2 2 2 2 2 2 2 2 1 1 2 2 2 2 1 2 2 3 3 0 1
5 5 5 5 5 5 5 5 5 5 5 5 5 4 4 5 4 4 4 3 2 2 3 3 2 2 2 2 2 2 1 2 1 1 2 1 1 1 2 2 3 3 1
3 4 4 4 4 5 5 4 5 6 5 4 4 4 4 4 4 4 4 3 3 3 3 3 3 2 2 2 2 1 2 2 1 1 1 1 1 1 1 2 2 2 3
4 4 4 5 4 4 3 4 4 4 4 4 4 4 4 3 3 4 4 4 3 4 4 4 3 3 2 2 2 2 2 2 1 1 1 1 1 1 1 2 2 1 2
2 2 2 3 3 3 3 4 4 4 4 4 4 4 4 3 3 3 4 4 4 4 4 3 3 3 3 3 3 3 2 2 2 2 2 2 1 2 1 2 2 2 2
1 1 1 2 3 3 3 3 3 4 3 3 4 3 4 4 4 4 3 4 4 4 3 3 3 3 3 3 3 3 3 2 3 3 3 2 2 2 2 2 2 2 2
2 2 2 2 2 3 3 3 3 4 4 4 4 4 4 4 4 3 3 4 4 4 4 3 3 3 3 3 3 3 3 2 2 2 3 3 4 4 4 3 3 2 2
2 3 3 2 3 3 3 2 2 3 4 4 4 4 3 3 3 3 3 3 3 4 4 3 2 2 2 3 3 3 3 3 2 1 2 3 4 5 4 3 4 4 3
3 3 3 3 4 4 4 3 3 3 4 4 4 3 3 3 3 3 3 3 3 3 3 3 3 2 2 2 3 3 3 3 3 2 1 2 3 4 4 5 5 6 5
3 3 4 4 4 5 5 5 4 3 4 4 3 3 3 3 3 3 3 3 3 3 3 3 3 3 3 3 3 3 3 3 3 3 2 2 2 2 2 3 4 4 5
3 3 3 3 2 3 3 3 3 4 4 3 3 3 4 4 3 3 3 3 3 3 3 3 3 3 3 3 3 3 2 2 3 3 3 3 2 3 3 2 2 2 3
3 3 3 2 2 2 3 4 3 4 4 4 4 4 4 4 4 4 4 3 3 3 3 3 3 3 3 4 4 3 3 2 3 3 3 3 3 4 5 4 3 2 2
1 1 1 1 1 1 3 4 3 4 5 5 5 4 4 5 5 5 4 3 3 4 3 2 3 4 4 4 3 3 3 2 2 2 3 4 4 5 5 5 5 4 3
1 0 0 1 2 2 3 4 3 5 5 4 4 3 4 5 4 3 3 3 3 2 2 3 2 3 3 4 4 3 3 4 3 3 3 3 4 5 6 6 5 6 4
1 0 1 1 1 2 4 4 4 5 3 3 3 3 3 4 3 3 3 3 3 3 3 2 2 2 2 3 4 4 4 3 4 4 3 4 4 5 5 5 5 6 5
2 2 2 1 1 1 4 4 4 2 2 3 3 3 3 3 3 4 3 2 3 3 3 3 3 2 2 2 3 3 4 4 3 3 4 3 3 3 3 4 5 4 3
2 1 2 1 1 2 2 4 3 2 3 3 3 3 3 3 3 3 3 3 4 4 3 3 3 3 2 2 2 2 3 3 2 2 2 2 2 1 2 2 3 3 3
1 1 2 2 3 2 2 2 2 3 3 4 3 3 3 3 3 3 3 4 5 5 5 5 4 4 4 5 5 3 3 3 3 2 1 1 1 1 1 1 1 2 2
1 2 2 2 2 1 1 1 2 3 3 3 3 3 3 3 3 3 1 2 3 4 4 4 4 4 5 5 4 4 4 4 3 2 2 2 3 3 3 3 2 2 3
Wind_Direction
221 190 182 172 158 153 147 155 153 149 137 129 135 133 142 126 77 79 98 112 113 114 116 112 111 109 110 114 114 103 86 70 74 77 51 28 33 40 28 30 37 33 31
200 188 177 171 173 175 171 171 171 162 166 169 158 149 141 140 133 76 74 101 117 122 125 124 132 128 119 109 110 114 108 84 68 95 87 32 3 7 17 20 30 24 27
200 193 182 184 181 185 187 185 186 175 172 154 117 93 75 61 57 44 49 47 120 126 128 136 133 137 136 142 148 140 135 141 71 81 127 135 211 314 346 11 20 15 19
197 190 186 188 194 197 188 181 170 165 161 148 149 153 155 160 187 185 174 91 105 119 129 137 136 138 141 150 164 146 148 145 153 92 66 126 156 152 332 340 355 6 15
195 190 192 195 197 187 178 177 161 156 159 162 164 163 162 160 134 115 107 88 57 82 116 133 133 141 149 158 158 149 153 157 162 161 146 101 76 104 144 274 325 346 342
197 194 192 183 184 174 166 164 167 172 172 174 174 175 173 161 146 152 153 143 88 59 81 120 130 146 153 167 173 164 165 169 158 158 159 161 161 179 162 192 264 301 314
191 187 185 186 185 178 182 178 179 187 184 183 190 190 184 175 178 183 181 168 164 190 189 124 132 142 163 165 158 155 169 168 164 170 183 183 183 163 157 153 186 266 303
191 188 190 188 188 189 190 188 192 198 192 193 201 194 185 183 192 190 186 187 195 198 176 155 146 138 142 149 143 147 172 154 166 176 171 170 181 163 160 159 153 138 320
185 186 187 186 187 192 197 199 197 201 201 206 201 185 185 189 194 189 186 189 188 176 161 161 148 138 134 137 138 145 160 150 161 171 165 162 181 170 164 157 159 159 200
165 180 183 187 191 196 200 199 196 201 201 199 201 194 191 190 184 175 185 192 189 170 161 161 155 146 143 139 131 150 164 146 162 165 148 146 163 165 161 165 164 159 170
182 182 190 189 188 190 191 198 200 199 197 197 196 187 186 178 170 183 195 192 184 176 174 177 170 168 172 163 157 164 163 162 168 161 163 187 159 157 164 153 153 159 153
188 180 177 176 174 189 204 208 202 195 196 192 186 184 174 165 173 192 197 186 183 181 179 172 169 177 181 181 181 188 181 181 189 197 179 209 181 164 176 167 173 184 173
162 143 139 180 191 203 212 212 202 195 186 170 171 173 171 174 190 200 196 186 180 176 171 167 177 188 189 189 195 194 194 196 202 198 194 206 181 192 200 184 185 191 180
181 173 188 212 207 206 207 207 205 187 174 167 170 180 191 192 194 194 187 184 178 175 177 179 185 188 184 186 191 188 188 191 198 205 201 206 200 200 196 193 190 178 162
215 206 208 213 208 205 204 202 200 182 171 169 180 195 199 194 184 181 182 176 173 177 174 168 176 183 181 184 181 181 185 186 194 216 221 217 217 212 202 198 189 174 169
234 230 218 213 209 206 201 195 199 191 173 179 192 188 177 177 177 179 178 170 171 168 159 171 179 188 206 197 183 177 178 183 189 207 247 242 230 230 226 217 200 185 178
234 226 217 218 219 210 197 193 199 185 171 182 189 181 176 178 187 175 162 172 176 170 176 188 187 207 223 197 192 195 184 186 198 206 215 246 245 218 209 222 214 209 206
238 236 223 226 228 207 186 178 172 169 173 182 191 186 178 183 185 171 177 180 173 182 192 201 206 214 229 205 199 195 186 189 208 216 217 218 247 226 194 195 197 203 211
236 239 224 220 206 190 175 158 164 166 173 193 203 197 184 184 186 191 198 193 183 195 199 196 204 216 240 225 205 181 180 199 227 233 224 216 221 234 203 183 188 201 235
255 257 220 168 184 198 160 150 170 180 196 207 210 198 186 189 198 206 208 201 191 199 198 209 215 218 236 239 212 194 184 203 234 246 241 238 227 222 207 192 188 201 224
273 281 159 201 217 181 153 164 184 212 217 204 192 190 190 194 199 203 204 194 190 186 199 218 235 230 239 245 227 213 196 201 220 236 244 244 241 226 216 208 203 213 199
272 243 205 252 252 178 165 185 217 231 214 186 185 194 196 197 194 187 198 189 182 186 201 210 244 255 255 251 240 228 226 214 211 228 234 240 241 232 222 217 219 210 190
239 231 196 221 274 223 182 200 229 224 197 180 189 197 195 192 185 183 184 183 184 190 203 206 224 253 264 268 272 255 246 232 223 230 235 239 235 222 219 218 213 202 185
243 229 178 195 257 258 222 213 216 194 183 194 197 191 183 186 185 185 183 186 195 200 203 212 226 241 256 262 258 250 246 240 236 237 233 228 223 201 201 210 212 203 195
257 204 194 217 244 251 244 235 201 176 185 200 201 196 192 188 191 198 206 205 210 203 201 211 210 214 239 252 249 230 227 221 221 210 185 186 201 210 216 214 207 205 199
222 209 212 219 240 235 239 241 202 174 179 196 200 199 196 198 194 195 231 249 225 225 220 211 209 232 249 262 249 244 241 224 199 171 192 216 215 221 224 220 217 213 218
Height
1509 1511 1512 1514 1516 1517 1519 1520 1521 1522 1523 1524 1525 1526 1526 1527 1527 1528 1528 1528 1528 1528 1528 1528 1528 1528 1528 1528 1529 1529 1529 1529 1529 1529 1529 1530 1530 1530 1530 1530 1530 1530 1530
1506 1508 1510 1512 1513 1515 1517 1518 1520 1521 1522 1523 1524 1525 1526 1526 1527 1527 1527 1528 1528 1528 1528 1528 1528 1528 1528 1528 1529 1529 1529 1529 1529 1529 1529 1530 1531 1530 1530 1530 1530 1530 1530
1503 1505 1507 1509 1511 1513 1515 1516 1518 1519 1521 1522 1523 1524 1525 1525 1526 1526 1527 1527 1527 1527 1527 1527 1528 1528 1528 1528 1528 1528 1529 1529 1529 1529 1530 1530 1529 1530 1530 1530 1529 1529 1529
1501 1503 1505 1507 1508 1511 1513 1514 1516 1517 1519 1520 1521 1522 1523 1524 1525 1525 1526 1526 1526 1526 1526 1527 1527 1527 1528 1528 1528 1528 1528 1528 1528 1529 1529 1530 1529 1529 1529 1529 1529 1529 1528
1498 1500 1502 1504 1506 1509 1510 1512 1514 1515 1517 1518 1519 1521 1522 1523 1523 1524 1525 1525 1525 1525 1526 1526 1526 1527 1527 1527 1527 1527 1527 1527 1527 1527 1528 1528 1528 1528 1528 1527 1527 1527 1527
1495 1497 1500 1502 1504 1506 1508 1510 1511 1513 1515 1516 1517 1519 1520 1521 1522 1522 1523 1523 1524 1524 1525 1525 1525 1526 1526 1526 1526 1526 1526 1526 1526 1526 1527 1527 1527 1527 1527 1526 1526 1526 1526
1493 1495 1497 1499 1501 1503 1506 1508 1509 1511 1512 1514 1515 1516 1518 1519 1520 1521 1521 1522 1522 1523 1523 1524 1524 1524 1524 1524 1525 1525 1525 1525 1525 1525 1525 1525 1526 1526 1526 1525 1525 1525 1525
1490 1492 1495 1497 1499 1501 1503 1505 1507 1508 1510 1512 1513 1514 1515 1517 1518 1518 1519 1520 1520 1521 1522 1522 1523 1523 1523 1523 1523 1523 1523 1523 1523 1523 1523 1524 1524 1524 1524 1524 1524 1523 1523
1488 1490 1493 1495 1497 1499 1501 1503 1505 1506 1508 1509 1511 1512 1513 1514 1515 1516 1517 1518 1518 1519 1519 1520 1521 1521 1521 1521 1521 1521 1521 1521 1521 1521 1522 1522 1522 1522 1522 1522 1522 1523 1522
1487 1489 1491 1493 1496 1498 1499 1502 1503 1504 1505 1507 1508 1509 1510 1511 1512 1513 1514 1515 1516 1516 1517 1517 1518 1518 1519 1519 1519 1519 1519 1519 1519 1520 1520 1519 1520 1520 1520 1520 1520 1521 1521
1486 1488 1489 1491 1494 1496 1498 1499 1500 1502 1503 1504 1505 1506 1507 1509 1510 1511 1511 1512 1513 1514 1514 1515 1515 1516 1516 1516 1517 1517 1517 1517 1517 1517 1518 1517 1518 1518 1518 1518 1518 1518 1519
1486 1487 1488 1490 1491 1493 1495 1496 1497 1498 1500 1501 1503 1504 1505 1506 1506 1507 1508 1509 1510 1511 1511 1512 1513 1513 1514 1514 1514 1514 1514 1514 1514 1515 1515 1515 1515 1515 1516 1516 1516 1516 1517
1485 1486 1487 1488 1489 1491 1493 1494 1495 1496 1497 1499 1500 1501 1502 1503 1503 1504 1505 1506 1507 1508 1509 1510 1510 1510 1511 1511 1511 1511 1512 1512 1512 1512 1513 1513 1513 1513 1513 1513 1514 1514 1515
1484 1485 1486 1487 1488 1489 1490 1491 1492 1494 1495 1496 1497 1498 1499 1499 1501 1501 1502 1503 1504 1505 1506 1507 1507 1508 1508 1508 1508 1509 1509 1509 1509 1510 1510 1510 1510 1510 1511 1511 1511 1512 1512
1483 1483 1484 1485 1486 1487 1488 1489 1490 1491 1492 1494 1495 1495 1496 1497 1498 1498 1499 1500 1501 1502 1503 1504 1504 1505 1505 1505 1506 1506 1506 1506 1506 1507 1507 1507 1508 1508 1508 1508 1508 1509 1509
1481 1482 1482 1483 1483 1484 1485 1486 1487 1489 1490 1491 1492 1493 1493 1494 1495 1496 1497 1497 1498 1499 1500 1501 1501 1502 1502 1502 1503 1503 1503 1503 1503 1503 1504 1504 1504 1505 1505 1505 1506 1506 1507
1479 1479 1480 1480 1481 1482 1483 1484 1485 1487 1488 1489 1489 1490 1491 1492 1492 1493 1494 1495 1495 1496 1497 1498 1498 1499 1499 1499 1500 1500 1500 1500 1500 1500 1501 1501 1501 1501 1502 1502 1503 1504 1504
1477 1477 1478 1478 1479 1480 1480 1482 1483 1484 1485 1486 1487 1487 1488 1489 1490 1491 1492 1492 1493 1493 1494 1494 1495 1495 1496 1496 1497 1497 1497 1497 1497 1497 1497 1497 1497 1498 1498 1499 1500 1500 1501
1475 1475 1476 1476 1477 1477 1478 1479 1480 1481 1482 1483 1484 1485 1486 1487 1487 1488 1489 1489 1490 1490 1490 1491 1491 1492 1492 1493 1493 1494 1493 1493 1494 1494 1494 1494 1494 1494 1495 1496 1496 1497 1498
1473 1473 1474 1474 1475 1475 1475 1476 1477 1478 1479 1480 1481 1482 1483 1484 1484 1485 1486 1486 1487 1487 1487 1488 1488 1489 1489 1490 1490 1490 1490 1490 1490 1490 1490 1490 1490 1491 1491 1492 1492 1493 1494
1471 1471 1472 1472 1472 1473 1473 1473 1474 1475 1476 1477 1478 1479 1480 1481 1481 1482 1482 1483 1483 1484 1484 1485 1485 1485 1486 1486 1486 1487 1487 1486 1486 1486 1486 1486 1487 1487 1488 1488 1489 1490 1491
1468 1469 1469 1469 1470 1470 1470 1471 1471 1472 1473 1474 1475 1476 1477 1478 1478 1478 1479 1479 1480 1480 1480 1481 1481 1482 1482 1483 1483 1483 1483 1483 1483 1482 1482 1483 1483 1483 1484 1485 1485 1486 1488
1465 1466 1466 1466 1467 1467 1467 1468 1469 1469 1470 1471 1471 1472 1473 1474 1475 1475 1475 1476 1476 1476 1477 1477 1477 1478 1479 1479 1479 1479 1479 1479 1479 1479 1479 1479 1479 1479 1480 1481 1482 1483 1483
1462 1462 1463 1463 1463 1464 1465 1465 1465 1466 1467 1467 1468 1469 1469 1470 1471 1472 1472 1472 1472 1473 1473 1474 1474 1474 1474 1475 1475 1475 1475 1475 1475 1475 1475 1476 1476 1476 1476 1477 1478 1478 1479
1460 1460 1460 1460 1460 1461 1461 1462 1462 1462 1463 1464 1465 1465 1465 1466 1467 1468 1468 1469 1469 1470 1470 1470 1470 1470 1470 1470 1471 1470 1470 1470 1470 1471 1471 1471 1471 1471 1472 1472 1473 1474 1475
1457 1457 1458 1458 1458 1458 1458 1459 1459 1459 1459 1460 1461 1461 1461 1462 1463 1464 1464 1465 1466 1466 1467 1467 1467 1466 1467 1467 1466 1466 1466 1466 1466 1466 1466 1466 1466 1467 1467 1468 1468 1469 1470